{"data":{"norad_id":56510,"intl_designator":"2023-065H","name":"STARLINK-5339","alt_names":[],"object_type":"PAYLOAD","status":"ACTIVE","operator":null,"country":"US","launch_date":"2023-05-14","launch_site_code":"AFETR","launch_vehicle":null,"mission":null,"orbit_class":"UNKNOWN","rcs_meters":null,"size_class":null,"mass_kg":null,"dimensions":null,"purposes":["comms"],"wikipedia_slug":null,"has_3d_model":false,"image_url":null,"decayed_at":null,"tle_current":{"epoch":"2026-05-24T11:20:09.758688Z","epoch_age_seconds":117145,"freshness":"FRESH","line1":"1 56510U 23065H   26144.47233517  .00001077  00000+0  48674-4 0  9999","line2":"2 56510  43.0035 144.1671 0001478 264.4354  95.6329 15.27574786168197","mean_motion":15.27574786,"eccentricity":0.0001478,"inclination_deg":43.0035,"raan_deg":144.1671,"arg_perigee_deg":264.4354,"mean_anomaly_deg":95.6329,"bstar":4.8674e-5,"rev_number":16819,"period_min":94.267070469963,"perigee_km":482.05062306325,"apogee_km":484.07879428833,"semimajor_km":6861.2017086758,"source":"CELESTRAK","updated_at":"2026-05-25T13:38:18.078962Z"}}}